Weather History for MCMWTC BRIDGEPORT, CA, CA

Change the Weather History Date:

Tuesday, December 31, 2013

  Actual Average (KTVL) Record (KTVL)
Temperature  
Mean Temperature 39 °F 29 °F  
Max Temperature 57 °F 43 °F 57 °F (2013)
Min Temperature 21 °F 16 °F -20 °F (1987)
Degree Days  
Heating Degree Days 26 36  
Month to date heating degree days 1092  
Since 1 July heating degree days 3183  
Cooling Degree Days 0 0  
Month to date cooling degree days 0  
Year to date cooling degree days 31  
Moisture  
Dew Point 12 °F    
Average Humidity 38    
Maximum Humidity 63    
Minimum Humidity 14    
Precipitation  
Precipitation 0.00 in - 2.07 in (2005)
Month to date precipitation  
Year to date precipitation  
Sea Level Pressure  
Sea Level Pressure 30.22 in    
Wind  
Wind Speed 2 mph (SW)    
Max Wind Speed 12 mph    
Max Gust Speed -    
Visibility 10 miles    
Events      
T = Trace of Precipitation, MM = Missing Value Source: NWS Daily Summary

Daily Weather History Graph

Daily Weather History Graph

Search for Another Location

Airport:

Trip Planner

Search our weather history database for the weather conditions in past years. The results will help you decide how hot, cold, wet, or windy it might be!

Date:

Astronomy

Dec. 31, 2013 Rise Set
Actual Time 7:15 AM PST 4:47 PM PST
Civil Twilight 6:45 AM PST 5:17 PM PST
Nautical Twilight 6:12 AM PST 5:50 PM PST
Astronomical Twilight 5:40 AM PST 6:22 PM PST
Moon 6:13 AM PST (12/31) 4:28 PM PST (12/31)
Length of Visible Light 10h 31m
Length of Day
9h 32m
Waning Crescent, 1% of the Moon is Illuminated
Dec 31
Waning Crescent
Jan 1
New
Jan 7
First Quarter
Jan 15
Full
Jan 23
Last Quarter

Hourly Weather History & Observations

Time (PST) Temp. Windchill Dew Point Humidity Pressure Visibility Wind Dir Wind Speed Gust Speed Precip Events Conditions
12:52 AM 30.9 °F - 16.0 °F 54% 30.19 in 10.0 mi Calm Calm - N/A   Clear
1:52 AM 30.0 °F - 15.1 °F 54% 30.20 in 10.0 mi Calm Calm - N/A   Clear
2:52 AM 30.9 °F - 15.1 °F 52% 30.20 in 10.0 mi Calm Calm - N/A   Overcast
3:52 AM 30.0 °F - 14.0 °F 51% 30.20 in 10.0 mi Calm Calm - N/A   Clear
4:52 AM 34.0 °F 31.0 °F 15.1 °F 46% 30.23 in 10.0 mi ENE 3.5 mph - N/A   Overcast
5:52 AM 37.0 °F 34.5 °F 12.9 °F 37% 30.20 in 10.0 mi ENE 3.5 mph - N/A   Mostly Cloudy
6:52 AM 37.9 °F - 14.0 °F 38% 30.19 in 10.0 mi Calm Calm - N/A   Partly Cloudy
7:52 AM 37.9 °F - 12.9 °F 36% 30.24 in 10.0 mi Calm Calm - N/A   Partly Cloudy
8:52 AM 45.0 °F - 15.1 °F 30% 30.24 in 10.0 mi Calm Calm - N/A   Clear
9:52 AM 46.0 °F 44.8 °F 15.1 °F 29% 30.23 in 10.0 mi ENE 3.5 mph - N/A   Mostly Cloudy
10:52 AM 54.0 °F - 9.0 °F 17% 30.20 in 10.0 mi SW 11.5 mph - N/A   Overcast
11:52 AM 54.0 °F - 9.0 °F 17% 30.19 in 10.0 mi SW 4.6 mph - N/A   Overcast
12:52 PM 55.0 °F - 8.1 °F 15% 30.16 in 10.0 mi SW 6.9 mph - N/A   Overcast
1:52 PM 57.0 °F - 8.1 °F 14% 30.13 in 10.0 mi SSW 8.1 mph - N/A   Partly Cloudy
2:52 PM 57.0 °F - 8.1 °F 14% 30.14 in 10.0 mi SW 9.2 mph - N/A   Clear
3:52 PM 54.0 °F - 9.0 °F 17% 30.16 in 10.0 mi SW 5.8 mph - N/A   Clear
4:52 PM 44.1 °F - 10.0 °F 25% 30.20 in 10.0 mi Calm Calm - N/A   Clear
5:52 PM 39.0 °F 36.8 °F 12.0 °F 33% 30.24 in 10.0 mi WSW 3.5 mph - N/A   Clear
6:52 PM 32.0 °F 26.4 °F 12.0 °F 44% 30.28 in 10.0 mi NNW 5.8 mph - N/A   Clear
7:52 PM 28.9 °F - 10.9 °F 47% 30.31 in 10.0 mi Calm Calm - N/A   Clear
8:52 PM 26.1 °F - 10.9 °F 53% 30.29 in 10.0 mi Calm Calm - N/A   Clear
9:52 PM 26.1 °F - 10.9 °F 53% 30.31 in 10.0 mi Calm Calm - N/A   Clear
10:52 PM 21.9 °F - 10.9 °F 63% 30.31 in 10.0 mi Calm Calm - N/A   Clear
11:52 PM 21.0 °F - 10.0 °F 63% 30.31 in 10.0 mi Calm Calm - N/A   Clear